Ft Riley, KS

6:36 PM CDT on June 23, 2017 (GMT -0500)
Marshall Army Air Field

Weather History for KFRI - August, 2013

Change the Weather History Date:

Tuesday, August 27, 2013

  Actual Average (KMHK) Record (KMHK)
Temperature  
Mean Temperature 84 °F -  
Max Temperature 94 °F 88 °F 99 °F (1998)
Min Temperature 73 °F 61 °F 55 °F (2010)
Cooling Degree Days 18    
Growing Degree Days 34 (Base 50)    
Moisture  
Dew Point 66 °F    
Average Humidity 57    
Maximum Humidity 84    
Minimum Humidity 31    
Precipitation  
Precipitation 0.00 in - - ()
Sea Level Pressure  
Sea Level Pressure 29.98 in    
Wind  
Wind Speed 11 mph (SSW)    
Max Wind Speed 17 mph    
Max Gust Speed -    
Visibility 10 miles    
Events      
Averages and records for this station are not official NWS values.
T = Trace of Precipitation, MM = Missing Value Source: NWS Daily Summary

Daily Weather History Graph

Daily Weather History Graph

Search for Another Location

Airport or City:

Trip Planner

Search our weather history database for the weather conditions in past years. The results will help you decide how hot, cold, wet, or windy it might be!

Date:

Astronomy

Aug. 27, 2013 Rise Set
Actual Time 6:51 AM CDT 8:04 PM CDT
Civil Twilight 6:23 AM CDT 8:32 PM CDT
Nautical Twilight 5:50 AM CDT 9:05 PM CDT
Astronomical Twilight 5:16 AM CDT 9:39 PM CDT
Moon No Moon Rise 1:47 PM CDT (8/27)
Length of Visible Light 14h 08m
Length of Day
13h 13m
Waning Gibbous, 57% of the Moon is Illuminated
Aug 27
Waning Gibbous
Aug 28
Last Quarter
Sep 5
New
Sep 12
First Quarter
Sep 19
Full

Hourly Weather History & Observations

Time (CDT) Temp. Heat Index Dew Point Humidity Pressure Visibility Wind Dir Wind Speed Gust Speed Precip Events Conditions
12:58 AM 78.8 °F - 67.3 °F 68% 30.00 in 10.0 mi South 12.7 mph - N/A   Clear
1:58 AM 77.0 °F - 67.3 °F 72% 30.00 in 10.0 mi SSW 9.2 mph - N/A   Clear
2:58 AM 75.6 °F - 67.3 °F 75% 30.00 in 10.0 mi SSW 8.1 mph - N/A   Clear
3:58 AM 74.7 °F - 67.3 °F 78% 30.00 in 10.0 mi SSW 5.8 mph - N/A   Clear
4:58 AM 74.8 °F - 67.3 °F 77% 30.00 in 10.0 mi SSW 10.4 mph - N/A   Clear
5:58 AM 74.7 °F - 68.2 °F 80% 30.00 in 10.0 mi SSW 10.4 mph - N/A   Clear
6:58 AM 73.2 °F - 68.2 °F 84% 30.01 in 10.0 mi SSW 8.1 mph - N/A   Clear
7:58 AM 75.0 °F - 67.8 °F 78% 30.01 in 10.0 mi SSW 8.1 mph - N/A   Clear
8:58 AM 79.3 °F - 67.6 °F 67% 30.03 in 10.0 mi SSW 10.4 mph - N/A   Clear
9:58 AM 83.1 °F 85.7 °F 66.9 °F 58% 30.01 in 10.0 mi SW 11.5 mph - N/A   Clear
10:58 AM 85.8 °F 88.2 °F 66.6 °F 52% 30.02 in 10.0 mi SSW 13.8 mph - N/A   Clear
11:58 AM 89.4 °F 92.3 °F 66.9 °F 47% 30.01 in 10.0 mi SSW 16.1 mph - N/A   Clear
12:58 PM 91.4 °F 94.5 °F 66.7 °F 44% 29.99 in 10.0 mi SSW 17.3 mph - N/A   Clear
1:58 PM 93.4 °F 97.0 °F 67.3 °F 42% 29.97 in 10.0 mi SW 15.0 mph - N/A   Clear
2:58 PM 93.7 °F 96.7 °F 65.8 °F 40% 29.96 in 10.0 mi SW 15.0 mph - N/A   Clear
3:58 PM 94.1 °F 94.2 °F 61.2 °F 33% 29.95 in 10.0 mi South 16.1 mph - N/A   Clear
4:58 PM 93.9 °F 93.2 °F 59.2 °F 31% 29.94 in 10.0 mi South 11.5 mph - N/A   Clear
5:58 PM 92.3 °F 92.7 °F 61.9 °F 36% 29.94 in 10.0 mi South 11.5 mph - N/A   Clear
6:58 PM 90.0 °F 90.6 °F 63.0 °F 40% 29.94 in 10.0 mi South 9.2 mph - N/A   Clear
7:58 PM 85.6 °F 86.6 °F 63.1 °F 47% 29.94 in 10.0 mi South 8.1 mph - N/A   Clear
8:58 PM 82.9 °F 84.4 °F 64.0 °F 53% 29.95 in 10.0 mi SSE 12.7 mph - N/A   Clear
9:58 PM 80.8 °F 82.4 °F 64.2 °F 57% 29.96 in 10.0 mi SSE 12.7 mph - N/A   Clear
10:58 PM 80.1 °F 81.7 °F 63.9 °F 58% 29.95 in 10.0 mi South 16.1 mph - N/A   Clear
11:58 PM 79.3 °F - 63.3 °F 58% 29.95 in 10.0 mi South 15.0 mph - N/A   Clear